Tracking 31027 objects as of 19-Jul-2025
HD Live streaming from Space Station
objects crossing your sky now

CLUSTER II-FM8

Track CLUSTER II-FM8 now!
CLUSTER II-FM8 is classified as:


NORAD ID: 26464
Int'l Code: 2000-045B
Perigee: 4,764.3 km
Apogee: 127,616.9 km
Inclination: 145.3 °
Period: 3,242.1 minutes
Semi major axis: 72561 km
RCS: 1.9952 m2 (large)
Launch date: August 9, 2000
Source: European Space Agency (ESA)
Launch site: TYURATAM MISSILE AND SPACE COMPLEX (TTMTR)

Collection of four spacecraft flying in formation around the earth, relaying detailed information about solar wind's affect on our planet in three dimensions.
Your satellite tracking list
COSMOS 1656
Track 1 satellite(s)




NASA's NSSDC Master Catalog

Two Line Element Set (TLE):
1 26464U 00045B   25202.43979095  .00002999  00000-0  00000+0 0  9996
2 26464 145.3187  14.2982 8465399 229.4926 359.2753  0.44416324 66494
Source of the keplerian elements: AFSPC